Location: Caltech
(34.1382°N, 118.1253°W)
Time: 02:10:34
(UTC-07:00)

SL-08 RB Rocket - Visible Passes

Search period start: 02 September 2014 00:00
Search period end: 12 September 2014 00:00
Orbit: 651 x 688 km, 98.1° (Epoch: 01 September)

Date Brightness Start Highest point End Pass type
(mag) Time Alt. Az. Time Alt. Az. Time Alt. Az.
02 Sep 6.5 22:39:07 14° NNW 22:39:07 14° NNW 22:39:48 10° NNW visible
03 Sep 6.3 21:33:57 11° NNE 21:33:57 11° NNE 21:34:06 10° NNE visible
04 Sep 6.3 22:06:58 14° N 22:06:58 14° N 22:07:35 10° N visible
05 Sep 6.6 22:40:00 12° NNW 22:40:00 12° NNW 22:40:22 10° NNW visible
07 Sep 6.5 22:07:52 12° N 22:07:52 12° N 22:08:10 10° N visible
08 Sep 6.8 22:40:54 10° NNW 22:40:54 10° NNW 22:40:55 10° NNW visible
